Location: Newark
(38.2561°N, 85.7581°W)
Time: 14:47:36
(UTC+00:00)

ISS - Visible Passes

Search period start: 14 November 2019 00:00
Search period end: 24 November 2019 00:00
Orbit: 412 x 421 km, 51.6° (Epoch: 14 November)

Date Brightness Start Highest point End Pass type
(mag) Time Alt. Az. Time Alt. Az. Time Alt. Az.
14 Nov -1.6 10:14:24 23° SE 10:14:24 23° SE 10:15:48 10° SE visible
15 Nov -1.3 11:01:33 11° SSW 11:01:33 11° SSW 11:01:52 10° SSW visible
20 Nov -1.8 00:25:13 10° SSW 00:26:45 23° SSW 00:26:45 23° SSW visible
20 Nov -2.4 23:37:20 10° S 23:40:06 24° SE 23:40:43 23° ESE visible
21 Nov -0.1 01:13:38 10° W 01:13:38 10° W 01:13:38 10° W visible
22 Nov -2.7 00:24:54 10° WSW 00:27:30 45° W 00:27:30 45° W visible
22 Nov -3.9 23:36:24 10° SW 23:39:44 78° SE 23:41:16 29° ENE visible
23 Nov -3.1 22:48:10 10° SSW 22:51:19 40° SE 22:54:29 10° ENE visible
